Location: Eaton Estates
(41.3089°N, 82.0057°W)
Time: 08:37:30
(UTC+00:00)

NOAA 18 - Pass Details

Date: 05 April 2023
Orbit: 838 x 860 km, 98.9° (Epoch: 03 June)

Event Time Altitude Azimuth Distance (km) Brightness Sun altitude
Exits shadow 01:35:41 12° 60° (ENE) 2,385 7.2 -18.6°
Maximum altitude 01:35:59 12° 56° (NE) 2,382 7.3 -18.6°
Drops below altitude 10° 01:37:49 10° 37° (NE) 2,505 7.6 -18.9°
Sets 01:41:57 0° 7° (N) 3,446 8.7 -19.6°
